Regional Weather Roundup
Issued by NWS

Home | Current Version | Previous Version | Text Only | Print | Product List | Glossary Off
Versions: 1 2 3 4 5 6 7 8 9 10 11 12 13 14 15 16 17 18 19 20 21 22 23 24 25 26 27 28 29 30 31 32 33 34 35 36 37 38 39 40 41 42 43 44 45 46 47 48 49 50

000
ASUS43 KMKX 270711
RWRWI

WISCONSIN REGIONAL WEATHER ROUNDUP
NATIONAL WEATHER SERVICE MILWAUKEE/SULLIVAN WI
200 AM CDT MON MAR 27 2017

NOTE: "FAIR" INDICATES FEW OR NO CLOUDS BELOW 12,000 FEET WITH NO
SIGNIFICANT WEATHER AND/OR OBSTRUCTIONS TO VISIBILITY.

WIZ001-002-006>008-014>016-023>028-270800-
NORTHWEST WISCONSIN

CITY           SKY/WX    TMP DP  RH WIND       PRES   REMARKS
SUPERIOR ARPT  CLOUDY    32  32 100 CALM      29.96S FOG
ASHLAND        CLOUDY    32  31  96 CALM      29.94F
HAYWARD        CLOUDY    35  32  88 N3        29.91F
SIREN          CLOUDY    34  34  98 CALM      29.94S
CUMBERLAND     FOG       32  32 100 CALM      29.90F VSB 3/4
RICE LAKE      CLOUDY    35  35  98 CALM      29.93S
CHETEK         CLOUDY    35  35  99 CALM      29.91S
LADYSMITH      CLOUDY    35  33  92 N3        29.91F
EAU CLAIRE     CLOUDY    39  38  96 N3        29.90S
MENOMONIE      CLOUDY    39  38  97 N6        29.91S FOG     WCI  34
NEW RICHMOND   CLOUDY    35  35 100 N3        29.92F
OSCEOLA        CLOUDY    36  36 100 N5        29.95F WCI  32
$$

WIZ003>005-009-010-017-018-270800-
NORTH CENTRAL WISCONSIN

CITY           SKY/WX    TMP DP  RH WIND       PRES   REMARKS
MANITOWISH WTR CLOUDY    31  31 100 N3        29.86F
ARBOR VITAE    CLOUDY    34  33  96 N6        29.85F WCI  29
WOODRUFF       CLOUDY    34  33  96 N6        29.85F WCI  29
RHINELANDER    CLOUDY    35  34  96 NW3       29.86F
EAGLE RIVER    CLOUDY    32  32 100 N6        29.85F WCI  27
LAND O LAKES   CLOUDY    33  33 100 NW3       29.88S
PHILLIPS       CLOUDY    32  32 100 CALM      29.88S
TOMAHAWK       CLOUDY    33  32  96 NW3       29.87F
MEDFORD        CLOUDY    35  35  98 N5        29.86F FOG     WCI  31
MERRILL        CLOUDY    37  37 100 CALM      29.87F
$$

WIZ029-030-035-036-043>047-270800-
CENTRAL WISCONSIN

CITY           SKY/WX    TMP DP  RH WIND       PRES   REMARKS
WAUSAU         CLOUDY    38  37  97 NW3       29.85F
MOSINEE        CLOUDY    36  36 100 NW6       29.87F WCI  31
MARSHFIELD     CLOUDY    38  37  97 N6        29.86F WCI  33
STEVENS POINT  CLOUDY    37  37 100 N3        29.87F
WAUPACA        CLOUDY    39  38  96 CALM      29.87F
WAUTOMA        FOG       39  37  93 SW3       29.88F VSB 1
WISC RAPIDS    FOG       39  39 100 NW3       29.88F VSB 3/4
CAMP DOUGLAS   CLOUDY    40  39  99 W3        29.88S FOG
$$

WIZ011>013-019>022-031-037>040-048>050-270800-
NORTHEAST WISCONSIN

CITY           SKY/WX    TMP DP  RH WIND       PRES   REMARKS
ANTIGO         CLOUDY    35  35 100 NW3       29.85F
SHAWANO        CLOUDY    38  37  93 CALM      29.87F
OCONTO         CLOUDY    36  35  99 CALM      29.86F
STURGEON BAY   MIX PCPN  34  34 100 NW6       29.86F VSB 3/4 WCI  29
GREEN BAY      CLOUDY    38  38 100 NW5       29.87F WCI  34
MANITOWOC      CLOUDY    37  35  92 NW7       29.86F WCI  32
APPLETON       CLOUDY    36  36 100 W5        29.85F WCI  32
CLINTONVILLE   CLOUDY    36  36 100 CALM      29.87F
OSHKOSH        CLOUDY    38  36  92 NW5       29.87S WCI  34
$$

WIZ032>034-041-042-053>061-270800-
SOUTHWEST WISCONSIN

CITY           SKY/WX    TMP DP  RH WIND       PRES   REMARKS
LA CROSSE      CLOUDY    42  40  92 E3        29.91S
SPARTA         CLOUDY    39  39 100 W3        29.91S FOG
VIROQUA        CLOUDY    39  39 100 W5        29.90S VSB 3/4
BOSCOBEL       CLOUDY    43  41  93 CALM      29.92R
PRAIRIE DU CHI CLOUDY    41  39  92 SW3       29.92R
PLATTEVILLE    CLOUDY    42  42 100 W6        29.91R
$$

WIZ056-057-062-063-064-067-068-270800-
SOUTH CENTRAL WISCONSIN

CITY           SKY/WX    TMP DP  RH WIND       PRES   REMARKS
REEDSBURG      CLOUDY    39  39 100 CALM      29.88F
BARABOO/DELLS  CLOUDY    39  38  98 W5        29.88S FOG
LONE ROCK      CLOUDY    42  40  92 W5        29.91R FOG
MINERAL POINT  CLOUDY    43  43 100 CALM      29.89S FOG
MADISON        CLOUDY    41  39  93 MISG      29.88S
MIDDLETON      CLOUDY    42  42 100 W3        29.90R
WATERTOWN      CLOUDY    40  40 100 W3        29.88R
MONROE         CLOUDY    41  41 100 NW3       29.89S FOG
JANESVILLE     CLOUDY    43  43 100 NW3       29.90R
$$

WIZ051-052-058>065-066-070>072-270800-
SOUTHEAST WISCONSIN

CITY           SKY/WX    TMP DP  RH WIND       PRES   REMARKS
MILWAUKEE      CLOUDY    44  41  89 W5        29.86S
WAUKESHA       CLOUDY    37  37 100 W7        29.88R WCI  32
MILWAUKEE/TIMM CLOUDY    41  37  87 W5        29.87F
RACINE         FOG       42  41  96 CALM      29.88S VSB 1/2
KENOSHA        CLOUDY    45  43  93 NW8       29.87R FOG
FOND DU LAC    LGT RAIN  39  36  89 NW5       29.87F
SHEBOYGAN      CLOUDY    38  36  92 W6        29.87R WCI  33
WEST BEND      CLOUDY    37  37 100 N5        29.86F FOG     WCI  34
JUNEAU         CLOUDY    38  37  98 NW5       29.87F WCI  34
$$

LSZ147-162-270800-
LAKE SUPERIOR

STATION/POSITION TIME  TEMP    WIND        PRES    WAVE
                       AIR SEA DIR/SP/G            HT/PER
                 (UTC) (F)     (DEG/KT/KT) (MB)    (FT/S)
DEVILS ISLAND    0700   33     310/  6/  7 1014.7F
PORT WING        0640   34      30/  2/  3 1014.6S
SAXON HARBOR     0630   33     310/  6/  7 1013.5S
$$

LMZ867-665-643>646-270800-
LAKE MICHIGAN

STATION/POSITION TIME  TEMP    WIND        PRES    WAVE
                       AIR SEA DIR/SP/G            HT/PER
                 (UTC) (F)     (DEG/KT/KT) (MB)    (FT/S)
CHAMBERS ISLAND  0640   35     270/  5/  6 1011.2S
NORTHPORT PIER   0640   34     300/  4/  7 1011.2S
KEWAUNEE LAKESHO 0648   36     330/  2/  5 1010.8F
SHEBOYGAN LAKESH 0700   39     280/  5/  6 1011.8S
PORT WASHINGTON  0630   42     300/  5/  7 1012.5S
MILWAUKEE LAKESH 0650   39      50/  1/  2   N/A
KENOSHA   LAKESH 0700   41      CALM  /  2 1012.2
$$

TC  - TEMPERATURE IN CELSIUS
VSB - VISIBILITY IN STATUTE MILES
WCI - WIND CHILL INDEX
HX  - HEAT INDEX




USA.gov is the U.S. government's official web portal to all federal, state and local government web resources and services.